Location: Unspecified
(0.0000°N, 0.0000°E)
Time: 23:12:36
(UTC+00:00)

A-11 Canister half - Pass Details

Date: 17 February 2023
Orbit: 1526 x 1682 km, 47.3° (Epoch: 29 March)

Event Time Altitude Azimuth Distance (km) Brightness Sun altitude
Rises 21:06:15 0° 199° (SSW) 4,898 12.0 -41.9°
Reaches altitude 10° 21:10:07 10° 187° (S) 3,889 11.3 -42.9°
Enters shadow 21:13:29 20° 171° (S) 3,160 10.6 -43.7°
Maximum altitude 21:18:12 28° 132° (SE) 2,679 - -44.8°
Drops below altitude 10° 21:26:01 10° 77° (ENE) 3,781 - -46.7°
Sets 21:29:39 0° 66° (ENE) 4,741 - -47.5°
